STARLINK-33549 (62289 NORAD) Tracking and Keplerian Element Data

This shows tracking and keplerian element data for the satellite.

Feedback or suggestion? Click here.




ElementValue
Catalog62289
NameSTARLINK-33549
Epoch Orbit1016
Epoch Day34.93453002
Epoch Year2025
RAAN312.1182
Inclination42.9993
Eccentricity0.0002458
Argument of Perigee273.1968
Mean Anonmoly86.8607
Mean Motion15.40680659
Decay Rate-1.663E-05
L11 62289U 24237Y 25034.93453002 -.00001663 00000+0 -32561-4 0 9993
L22 62289 42.9993 312.1182 0002458 273.1968 86.8607 15.40680659 10165



Live tracking and technical data element details for STARLINK-33549 (NORAD 62289). STARLINK-33549 can be tracked NOW for your location showing map with azimuth and elevation plus other details from your city location.







IsCatalogInMostPopularTable: catalog: 62289, numindb: 48
Update: records affected: 1



GetName: 62289 STARLINK-33549

Hit Count: updated at: Sun, 18 May 2025 22:02:49 GMT